COSMOS 2432 (719)

Last updated on Sat Sep 19 2026 00:03:24 GMT+0000 (Coordinated Universal Time)

1 32276U 07052B 26261.36234065 -.00000042 00000+0 00000+0 0 9995 2 32276 65.5348 312.9235 0008701 307.5470 45.4378 2.13103328147062
UTC large
Height (km)
Speed (km/s)
/
Latitude / Longitude
Inclination (degrees)
Orbital Period (minutes)
Azimuth
Elevation
Range (km)
Doppler Factor

Next 0 passes for location: London (51.5072 / 0.1276)

No passes found over London.
COSMOS 2432 (719)